SCP
0 0 0 0 0 0 0 0 0 0 0 0 0 0 0 0 0 0 0 0 0 0 0 0 1 0 0 0 0 0 1 1 1 1 1 0 0 1 1 1 1 1 1 1 1 1 1 1 1
0 0 0 0 0 0 0 0 0 0 0 0 0 0 0 0 0 0 0 0 0 0 1 1 1 1 0 0 0 0 0 1 1 0 0 1 1 1 1 1 1 1 1 1 1 1 1 2 1
0 0 0 0 0 0 0 0 0 0 0 0 0 0 0 0 0 0 0 0 0 1 1 1 1 1 1 0 0 0 0 0 0 0 1 1 1 1 1 1 1 1 1 1 1 1 2 2 2
0 0 0 0 0 0 0 0 0 0 0 0 0 0 0 0 0 0 0 0 1 1 1 1 1 1 1 1 0 1 1 1 0 0 1 1 1 1 1 1 1 1 1 1 1 1 2 2 2
0 0 0 0 0 0 0 0 0 0 0 0 0 0 0 0 0 0 0 0 0 1 1 1 1 1 1 1 1 1 1 1 1 1 1 1 1 0 0 0 1 1 1 1 1 1 1 1 1
1 0 0 0 0 0 0 0 0 0 0 0 0 0 0 0 0 0 0 0 0 1 1 1 1 1 1 1 1 1 1 1 1 1 0 0 0 0 0 0 0 1 1 1 1 1 1 1 1
1 0 0 0 0 0 0 0 0 0 0 0 0 0 0 0 0 0 0 0 0 1 1 1 1 1 1 1 1 1 1 1 1 0 0 0 0 0 0 0 0 0 0 1 1 1 1 1 1
1 1 0 0 0 0 0 0 0 0 0 0 0 0 0 0 0 0 0 0 0 1 1 1 0 0 1 1 1 1 1 0 0 0 0 0 0 0 0 0 0 0 0 0 0 1 1 1 1
1 1 0 0 0 0 0 0 0 0 0 0 0 0 0 0 0 0 0 0 0 0 0 0 0 0 0 0 0 0 0 0 0 0 0 0 0 0 0 0 0 0 0 0 0 1 1 1 1
1 1 0 0 0 0 0 0 0 0 0 0 0 0 0 0 0 0 0 0 0 0 0 0 0 0 0 0 0 0 0 0 0 0 0 0 0 0 0 0 0 0 0 0 0 1 1 1 1
1 1 1 0 0 0 0 0 0 0 0 1 1 1 1 1 0 0 0 0 0 0 0 0 0 0 0 1 1 1 0 0 0 0 0 0 0 0 0 0 0 0 0 0 0 1 1 1 0
1 1 1 1 0 0 0 0 0 0 0 1 1 1 1 1 1 0 0 0 0 0 0 0 0 0 0 0 0 1 0 0 0 0 0 0 0 0 0 0 0 0 0 0 0 0 0 0 0
1 1 1 1 1 1 1 0 0 0 0 0 1 1 1 1 1 0 0 0 0 0 0 0 0 0 0 0 0 0 1 0 0 0 0 0 0 0 0 0 0 0 0 0 0 0 0 0 0
1 1 1 1 1 1 1 0 0 0 0 0 0 0 0 0 0 0 0 0 0 0 0 0 0 0 0 0 0 0 0 0 1 1 1 0 0 0 0 0 0 0 0 0 0 0 0 0 1
1 1 0 0 0 0 0 0 0 0 0 0 0 0 0 0 0 0 0 0 0 0 0 0 0 0 0 0 0 0 0 0 1 1 1 1 1 1 1 1 1 0 0 0 0 0 0 0 1
0 0 0 0 0 0 0 0 0 0 0 0 0 0 0 0 0 0 0 0 0 0 0 0 0 0 0 0 0 0 0 0 0 1 1 1 1 1 1 1 1 1 0 0 0 0 0 0 0
0 0 0 0 0 0 0 0 0 0 0 0 0 0 0 0 0 1 1 0 0 0 0 0 1 1 0 0 0 0 0 0 0 0 1 1 1 1 1 1 1 1 0 0 0 0 0 0 0
0 0 0 0 0 0 0 0 0 0 0 0 0 0 0 0 0 0 0 0 0 0 0 1 1 1 0 0 0 0 0 0 0 0 0 0 0 0 0 0 0 0 0 1 0 0 0 0 0
0 0 0 0 0 0 0 0 0 0 0 0 0 0 0 0 0 0 0 0 0 0 0 1 1 1 0 0 0 1 0 0 0 0 0 0 0 0 0 0 0 0 0 0 0 0 0 0 0
0 0 0 0 0 0 0 0 0 0 0 0 0 0 0 0 0 0 0 1 1 1 1 1 1 0 0 0 1 1 0 0 0 0 0 0 0 0 0 0 0 0 0 0 0 0 1 0 0
0 0 0 0 0 0 0 0 0 0 0 0 0 0 0 0 0 0 0 1 1 1 1 1 1 1 0 0 0 0 0 0 0 0 0 0 0 0 1 0 0 0 0 0 0 0 1 1 0
0 0 0 0 0 0 0 0 0 0 0 0 0 0 0 0 0 0 0 1 1 1 1 1 1 1 1 1 1 0 0 0 0 0 0 0 0 0 1 1 0 1 1 0 0 0 1 1 1
0 0 0 0 0 0 0 0 0 0 0 0 0 0 0 0 0 0 0 1 1 1 1 1 1 1 1 1 1 0 0 0 0 0 0 0 0 0 0 0 0 1 1 0 0 0 1 1 1
0 0 0 0 0 0 0 0 0 0 0 0 0 0 0 0 0 0 0 1 1 1 2 2 2 1 1 1 1 0 0 0 0 0 0 0 0 0 0 0 0 0 0 0 0 0 1 1 1
0 0 0 0 0 0 0 0 0 0 0 0 0 0 0 0 0 0 0 1 1 1 2 2 2 2 1 1 1 1 0 0 0 0 0 0 0 0 0 0 0 0 0 0 1 1 1 1 1
0 0 0 0 0 0 0 0 0 0 0 0 0 0 0 0 0 0 0 1 1 1 1 2 2 1 1 1 1 1 0 0 0 0 0 0 0 0 0 0 0 0 1 1 1 1 1 1 1
0 0 0 0 0 0 0 0 0 0 0 0 0 0 0 0 0 0 0 1 1 1 1 1 1 1 1 1 1 1 1 0 0 0 0 0 0 0 0 0 0 0 0 0 0 1 1 1 1
0 0 0 0 0 0 0 0 0 0 0 0 0 0 0 0 0 1 1 1 1 1 1 1 1 1 1 1 1 1 1 1 1 1 0 0 0 0 0 0 0 0 0 1 0 0 0 1 1
0 0 0 0 0 0 0 0 0 0 0 0 0 0 0 0 0 1 1 1 1 1 1 1 1 1 1 1 1 1 1 1 1 1 1 0 0 0 0 0 0 0 1 1 1 0 0 0 0
0 0 0 0 0 0 0 0 0 0 0 0 0 0 0 0 0 1 1 1 1 1 2 1 1 1 1 1 1 1 1 1 1 1 1 0 0 0 0 0 0 1 1 1 1 0 0 0 0
Wind_Speed
3 2 2 2 3 2 5 5 4 5 4 4 4 3 4 5 5 6 5 4 4 4 5 6 6 7 8 9 9 9 9 10 10 10 10 10 10 9 8 8 8 8 7 7 7 7 7 7 7
1 1 2 2 2 4 6 5 5 6 6 6 5 4 5 6 6 6 5 4 4 5 5 7 7 7 8 9 9 9 9 10 10 10 10 10 10 9 9 9 8 8 7 7 7 6 7 7 7
2 1 2 1 1 3 6 5 7 7 6 3 4 4 4 5 5 5 5 5 5 5 5 8 6 8 8 9 9 10 9 9 10 11 10 10 10 10 9 9 9 8 7 7 7 6 7 7 7
2 2 1 1 6 6 5 6 6 7 5 3 4 6 6 5 3 5 7 6 6 6 6 8 7 8 8 9 9 9 10 10 10 11 11 11 10 10 9 9 9 8 8 7 7 7 7 7 7
1 1 3 4 6 5 4 4 5 5 5 4 4 6 7 5 6 7 7 6 6 6 6 9 7 8 8 8 9 10 10 10 11 11 11 10 10 10 10 10 9 9 8 8 7 7 7 7 7
2 2 3 5 6 5 5 4 5 5 6 5 4 6 6 6 6 7 7 6 6 6 6 8 9 8 9 9 9 10 10 11 11 11 10 10 10 10 10 10 9 9 9 8 8 7 7 7 7
1 1 3 6 6 6 4 3 3 4 6 4 3 5 7 7 6 6 7 6 6 6 6 6 7 8 9 9 9 10 10 10 10 10 10 10 9 9 9 9 9 9 9 9 8 8 8 7 7
1 2 5 5 5 5 4 4 3 2 5 4 1 3 5 7 8 7 7 6 6 6 6 6 6 6 7 8 10 9 10 10 10 10 9 8 8 8 7 8 9 9 9 9 8 8 8 8 7
2 2 4 4 4 5 5 5 4 3 6 4 3 4 6 11 10 9 7 7 6 5 5 5 5 5 5 6 8 7 8 8 7 8 7 3 4 6 5 10 8 8 8 8 7 7 6 5 6
2 2 3 2 2 4 5 4 5 5 5 5 6 7 9 11 10 9 7 7 7 6 5 4 5 5 5 4 5 4 5 4 4 5 5 4 4 5 5 8 8 8 7 6 6 4 3 1 3
1 2 3 3 3 3 4 4 3 4 3 3 5 9 11 10 9 7 6 6 6 6 5 5 5 4 5 4 3 3 3 3 4 4 5 3 4 3 3 3 4 4 3 4 4 2 3 3 3
3 3 2 3 3 3 3 4 3 2 2 2 4 9 11 10 8 7 6 5 5 5 5 5 4 4 4 4 3 3 3 2 3 3 4 3 2 2 3 2 3 2 2 3 3 2 3 3 3
4 3 3 3 3 3 4 3 2 2 2 4 7 10 10 9 7 6 5 5 5 5 5 5 4 4 4 4 3 3 3 3 3 3 3 3 2 2 2 2 2 3 2 2 2 3 4 3 4
4 4 3 3 3 3 3 2 2 2 3 6 8 9 8 8 7 7 6 5 5 5 5 5 5 4 4 4 3 3 3 3 3 3 3 3 3 2 2 2 2 3 3 3 2 3 3 2 3
5 5 4 3 2 2 3 2 2 2 5 6 7 7 7 7 6 6 6 5 5 5 5 5 5 4 4 4 4 3 2 3 3 3 3 3 3 2 2 2 2 2 2 2 2 3 2 2 3
5 5 4 3 2 2 5 2 3 3 6 6 6 6 7 6 6 6 6 5 5 5 5 5 4 4 4 4 3 3 3 3 3 2 2 2 3 3 2 2 2 2 2 2 2 2 2 2 2
6 5 4 3 2 3 4 2 2 4 5 5 6 6 7 6 6 5 5 5 5 5 5 6 6 5 5 4 3 3 3 2 2 2 2 2 2 2 2 2 2 2 2 2 2 2 1 2 2
5 4 4 3 2 3 4 3 2 5 5 5 5 6 6 6 6 6 5 5 5 6 6 6 6 6 5 4 3 3 2 2 2 2 1 2 2 2 2 2 2 2 2 2 1 2 1 1 1
3 4 3 1 1 4 4 5 4 4 6 6 6 7 7 6 6 6 6 5 6 6 6 6 7 6 5 4 3 3 3 2 1 1 2 2 1 2 2 1 2 1 1 1 1 1 2 1 0
6 6 4 2 1 3 4 5 4 3 5 5 6 7 7 7 7 7 6 6 6 6 6 7 7 7 7 4 4 3 3 2 2 1 1 1 1 1 1 1 1 1 1 1 1 1 0 1 1
6 6 4 3 2 4 5 6 5 4 5 5 5 6 6 6 7 8 7 7 7 7 7 6 7 8 7 6 4 3 3 2 2 2 1 1 1 1 1 1 1 1 1 1 0 0 0 0 1
6 3 4 5 6 3 5 5 3 4 5 6 5 5 6 7 7 7 7 7 7 7 6 7 7 7 7 7 6 6 4 3 3 2 2 3 2 2 1 1 1 1 1 1 1 1 1 2 1
3 2 4 5 6 7 6 7 2 4 5 5 5 5 5 6 7 7 7 7 6 6 6 6 7 7 7 7 6 6 4 3 2 2 3 3 3 2 2 2 1 1 1 1 1 1 2 2 2
4 5 4 5 6 7 5 6 3 2 2 2 3 4 5 6 6 6 6 6 6 6 6 5 6 7 6 7 7 6 5 4 4 4 3 3 2 2 2 2 2 2 2 2 2 2 2 2 2
7 6 4 6 6 4 2 6 3 1 1 1 1 2 4 5 6 6 7 7 6 6 6 6 7 7 7 7 7 6 5 5 5 4 4 3 3 3 3 3 3 3 3 3 2 3 2 3 2
7 8 6 4 4 2 4 5 0 1 1 0 1 2 4 4 5 5 6 6 6 6 7 7 7 7 7 7 7 6 6 4 4 4 4 4 3 3 4 4 4 4 3 3 3 3 3 3 3
7 6 5 6 5 5 4 3 2 2 2 2 2 3 3 3 3 4 5 5 6 6 6 7 7 7 7 8 7 6 6 5 5 5 5 4 3 3 4 4 5 4 4 4 3 3 3 3 3
4 4 5 6 6 6 5 6 3 4 2 2 2 2 2 2 2 3 3 4 5 5 6 6 6 6 7 7 6 5 6 6 5 5 5 5 5 4 4 5 5 5 5 5 4 4 3 4 3
6 6 5 5 5 6 5 2 2 2 2 0 1 1 1 1 1 2 2 3 4 4 5 5 6 6 6 6 6 6 6 6 5 5 5 5 5 5 5 5 5 5 5 5 4 5 4 5 4
6 6 7 7 6 7 6 2 4 2 1 1 1 0 1 1 1 2 2 3 3 4 4 4 5 5 6 6 6 6 6 6 6 6 6 6 6 6 6 5 6 5 5 5 6 5 5 5 5
Wind_Direction
185 184 215 237 218 138 93 89 105 114 100 83 82 76 69 47 23 64 87 101 98 102 100 107 86 82 81 80 78 74 71 73 75 76 79 84 88 87 83 83 90 94 91 86 81 81 82 85 85
176 191 230 246 228 134 101 107 108 94 105 111 97 90 83 72 56 86 111 106 111 99 97 89 86 88 86 82 79 78 74 75 78 78 77 78 83 83 81 79 81 87 90 87 83 81 83 85 85
158 246 269 225 102 89 103 107 106 106 116 126 107 72 58 74 87 98 106 123 114 98 93 91 85 86 86 84 81 81 80 81 83 81 77 75 79 80 78 76 77 78 82 84 82 80 82 83 85
213 204 208 149 99 73 92 112 126 129 119 100 116 102 85 64 81 102 119 124 113 102 98 97 86 87 87 85 84 82 81 82 83 81 76 75 75 76 75 72 73 75 75 79 83 83 82 81 81
230 224 155 123 97 91 95 112 141 127 116 111 114 107 98 84 97 115 125 123 114 105 99 100 90 90 89 85 86 81 80 80 79 80 78 75 75 75 74 73 72 72 69 71 76 80 81 81 82
200 209 169 133 114 111 113 127 142 123 115 117 118 113 99 111 120 122 126 122 110 103 99 101 97 88 86 85 86 84 80 77 76 77 78 77 74 72 72 70 70 70 67 65 70 70 73 79 82
209 163 128 127 129 129 117 132 142 126 120 112 121 118 119 132 127 131 129 121 110 106 104 100 107 107 98 86 82 80 77 75 75 75 73 73 72 71 69 69 69 69 64 63 65 67 70 76 81
306 168 136 136 141 126 123 134 107 107 105 104 134 127 131 143 140 138 130 124 118 111 106 101 101 102 103 101 87 80 76 74 75 73 70 73 81 81 73 74 68 66 62 61 64 68 72 73 76
237 190 144 137 147 126 136 140 115 109 120 119 95 69 103 135 146 144 139 136 128 117 112 109 108 99 93 93 99 99 92 81 88 88 82 89 87 84 82 65 66 67 66 62 63 72 82 91 96
216 161 105 96 123 124 137 139 140 151 140 133 122 109 123 141 152 152 151 146 140 134 125 119 117 112 108 100 103 95 94 95 86 84 87 76 73 67 65 78 70 70 70 78 70 84 136 167 98
142 99 107 115 117 132 138 137 155 167 150 150 153 146 147 153 156 155 152 147 141 134 127 127 126 119 113 112 105 94 89 88 85 81 82 76 79 89 80 87 101 91 83 73 89 122 71 65 64
123 101 121 120 125 147 141 141 147 169 102 94 138 147 155 161 162 161 156 149 143 134 132 131 132 125 118 114 107 106 103 95 87 80 77 75 69 65 70 67 65 69 67 56 49 49 61 64 74
136 122 111 118 130 133 133 143 144 148 120 125 135 148 161 165 163 160 156 152 148 145 145 140 140 129 121 108 103 111 102 96 94 79 71 72 72 68 72 74 66 61 62 63 47 47 59 56 56
125 131 126 130 139 144 148 145 166 134 141 148 152 159 166 168 168 163 166 165 160 157 153 144 147 137 131 125 127 109 104 102 91 84 73 73 71 67 68 70 63 57 51 49 55 61 65 65 63
149 147 143 142 158 154 188 166 185 158 161 162 167 167 167 169 172 176 174 173 171 168 161 151 150 145 140 130 116 108 112 110 99 84 69 71 65 62 65 63 68 61 59 59 51 61 53 62 69
176 186 173 144 174 185 231 195 123 155 179 179 178 172 171 174 181 179 175 176 169 173 171 157 159 156 143 132 127 121 115 108 101 92 68 67 69 61 61 63 66 60 58 55 56 47 59 61 55
193 193 173 151 172 202 226 218 145 162 188 189 184 179 178 179 186 180 177 180 174 176 175 169 168 162 148 139 137 124 121 113 102 98 83 68 68 69 72 59 59 65 60 52 51 48 44 60 53
187 194 193 184 159 215 224 236 209 185 200 200 192 189 186 188 187 182 179 182 180 179 178 172 169 168 156 151 150 138 134 126 109 102 94 83 77 77 78 86 83 74 73 59 55 74 59 43 42
210 212 209 185 167 227 236 247 243 205 208 209 202 199 195 192 181 175 174 176 179 179 183 177 176 173 166 161 167 166 166 158 139 122 109 106 96 97 93 92 87 67 70 56 49 67 100 87 355
209 215 209 195 178 252 259 262 252 221 218 220 216 206 199 188 180 175 178 177 182 182 188 183 182 178 173 172 172 173 166 166 149 141 134 136 136 120 116 129 117 112 70 72 67 67 29 68 312
216 227 229 239 247 233 264 248 220 191 198 206 218 219 208 197 191 183 183 182 184 187 189 189 184 179 176 173 170 157 150 163 165 172 171 178 169 153 167 154 139 141 179 144 139 155 246 277 297
221 218 233 239 253 252 264 275 222 200 200 197 203 205 205 197 196 189 186 186 188 189 188 191 184 180 176 174 177 177 184 186 190 185 176 184 182 176 196 190 193 175 197 190 220 251 271 274 266
230 194 224 244 257 261 245 263 231 189 205 202 197 195 194 191 191 187 187 188 188 183 183 188 181 179 175 180 179 191 195 195 183 183 184 187 177 191 206 213 197 205 213 220 225 241 263 260 283
181 188 204 229 243 246 243 253 250 182 225 217 184 187 188 184 182 184 182 181 177 171 173 180 180 177 177 184 188 198 197 197 191 193 189 193 184 201 212 219 214 222 228 227 230 228 240 267 273
208 222 222 215 217 228 202 246 257 38 319 264 210 178 177 178 176 176 177 179 176 173 173 176 180 179 180 187 192 198 200 202 207 206 202 206 200 205 214 214 222 221 228 230 230 237 238 236 247
213 234 250 254 246 233 207 238 107 40 345 194 181 169 159 163 172 176 179 180 179 179 178 180 181 184 186 193 195 196 196 205 213 217 215 216 220 215 216 214 219 221 224 225 223 236 234 238 233
208 220 264 275 267 262 228 223 202 149 135 135 134 136 137 141 161 173 181 185 182 182 182 185 184 187 193 199 198 199 201 204 209 219 222 223 226 227 226 219 218 218 218 224 225 233 230 237 242
253 215 217 236 248 249 240 236 206 161 146 119 115 116 122 131 139 149 169 183 184 183 183 184 187 191 193 199 201 203 207 210 215 219 223 226 228 224 221 223 222 217 214 217 220 233 237 236 234
194 206 225 238 255 262 255 222 96 168 144 143 82 98 107 121 137 135 144 164 174 176 181 188 192 195 196 199 201 206 208 211 214 220 223 228 231 226 225 223 222 220 215 216 216 226 225 235 236
243 233 232 241 232 243 264 250 105 149 183 248 293 107 103 108 119 118 119 137 158 172 183 190 197 203 206 205 205 209 211 211 218 223 227 229 231 230 231 226 224 221 221 222 222 223 225 232 239